GW6025 Weather Reports


Display with metric or nautical units.
time (UTC)temp
F
wind
direction
speed
MPH
gust
MPH
rain 1hr
in
rain 24hr
in
rain mn
in
humidity
%
barometer
mb
20260505113939 63 154 1.0 2.0 0.00 0.00 0.00 71 1006.5
20260505113435 63 158 0.0 1.0 0.00 0.00 0.00 71 1006.7
20260505112931 63 152 1.0 1.0 0.00 0.00 0.00 71 1006.5
20260505112429 64 157 1.0 3.0 0.00 0.00 0.00 70 1006.2
20260505111925 64 151 1.0 2.0 0.00 0.00 0.00 70 1006.1
20260505111420 64 138 4.0 4.0 0.00 0.00 0.00 70 1006.0
20260505110917 64 147 2.0 3.0 0.00 0.00 0.00 70 1005.9
20260505110414 64 146 1.0 2.0 0.00 0.00 0.00 70 1005.7
20260505101844 65 151 1.0 2.0 0.00 0.00 0.00 67 1005.7
20260505101339 65 147 2.0 4.0 0.00 0.00 0.00 67 1005.5
20260505100835 65 146 1.0 3.0 0.00 0.00 0.00 66 1005.5
20260505100332 65 151 1.0 2.0 0.00 0.00 0.00 67 1005.6
20260505095828 65 132 1.0 2.0 0.00 0.00 0.00 67 1005.4
20260505095326 65 154 1.0 7.0 0.00 0.00 0.00 66 1005.3
20260505094821 64 154 1.0 7.0 0.00 0.00 0.00 66 1005.2
20260505094318 64 182 3.0 7.0 0.00 0.00 0.00 66 1005.2
20260505093814 64 166 2.0 3.0 0.00 0.00 0.00 66 1005.2
20260505093313 64 178 0.0 3.0 0.00 0.00 0.00 66 1005.2
20260505092809 64 166 0.0 2.0 0.00 0.00 0.00 66 1005.1
20260505092308 64 172 3.0 6.0 0.00 0.00 0.00 65 1005.1
20260505091804 65 194 1.0 3.0 0.00 0.00 0.00 65 1005.0
20260505091302 65 150 0.0 6.0 0.00 0.00 0.00 65 1004.9
20260505090759 65 160 0.0 7.0 0.00 0.00 0.00 64 1004.8
20260505090257 65 165 1.0 6.0 0.00 0.00 0.00 64 1004.8
20260505085754 65 172 4.0 7.0 0.00 0.00 0.00 64 1005.0
20260505085253 65 161 2.0 6.0 0.00 0.00 0.00 64 1005.2
20260505084750 65 161 1.0 6.0 0.00 0.00 0.00 64 1005.1
20260505084249 65 159 2.0 7.0 0.00 0.00 0.00 64 1005.1
20260505083745 65 179 1.0 4.0 0.00 0.00 0.00 64 1005.3
20260505083242 65 190 1.0 4.0 0.00 0.00 0.00 63 1005.2
20260505082738 65 149 1.0 6.0 0.00 0.00 0.00 63 1005.3
20260505082235 65 191 3.0 4.0 0.00 0.00 0.00 63 1005.3
20260505081731 65 153 3.0 6.0 0.00 0.00 0.00 63 1005.6
20260505081229 65 187 1.0 8.0 0.00 0.00 0.00 62 1005.5
20260505080726 65 172 1.0 3.0 0.00 0.00 0.00 62 1005.6
20260505080221 65 163 2.0 3.0 0.00 0.00 0.00 62 1005.7
20260505075717 65 153 1.0 3.0 0.00 0.00 0.00 62 1005.6
20260505075214 65 173 1.0 3.0 0.00 0.00 0.00 61 1005.6
20260505074712 66 155 1.0 2.0 0.00 0.00 0.00 61 1005.7
20260505074209 66 146 1.0 3.0 0.00 0.00 0.00 60 1005.5
20260505073706 66 145 1.0 4.0 0.00 0.00 0.00 60 1005.7
20260505073204 66 153 0.0 2.0 0.00 0.00 0.00 59 1005.6
20260505072659 67 147 2.0 2.0 0.00 0.00 0.00 59 1006.0
20260505072156 67 186 1.0 3.0 0.00 0.00 0.00 58 1006.0
20260505071652 67 153 1.0 3.0 0.00 0.00 0.00 57 1006.1
20260505071150 67 148 1.0 2.0 0.00 0.00 0.00 57 1006.0
20260505070646 67 212 5.0 7.0 0.00 0.00 0.00 57 1006.3
20260505070143 68 156 1.0 4.0 0.00 0.00 0.00 56 1006.4
20260505065639 68 132 1.0 2.0 0.00 0.00 0.00 56 1006.5
20260505065136 68 124 1.0 7.0 0.00 0.00 0.00 56 1006.6
20260505064632 68 185 2.0 3.0 0.00 0.00 0.00 55 1006.8
20260505064131 68 170 1.0 6.0 0.00 0.00 0.00 55 1006.7
20260505063628 68 180 2.0 4.0 0.00 0.00 0.00 55 1006.7
20260505063124 68 161 1.0 2.0 0.00 0.00 0.00 55 1006.9
20260505062620 68 193 2.0 4.0 0.00 0.00 0.00 55 1007.0
20260505062118 68 62 3.0 9.0 0.00 0.00 0.00 54 1007.0
20260505061615 68 154 1.0 3.0 0.00 0.00 0.00 54 1007.0
20260505061113 68 221 2.0 6.0 0.00 0.00 0.00 54 1007.0
20260505060610 68 161 0.0 4.0 0.00 0.00 0.00 54 1007.1
20260505060107 68 164 1.0 6.0 0.00 0.00 0.00 54 1007.0
20260505055602 68 152 1.0 4.0 0.00 0.00 0.00 54 1007.3
20260505055059 68 178 2.0 3.0 0.00 0.00 0.00 54 1007.1
20260505054556 68 172 1.0 4.0 0.00 0.00 0.00 54 1006.8
20260505054054 68 181 3.0 4.0 0.00 0.00 0.00 54 1007.0
20260505053551 68 183 1.0 4.0 0.00 0.00 0.00 55 1007.0
20260505053048 68 184 0.0 4.0 0.00 0.00 0.00 55 1006.9
20260505052544 68 149 2.0 4.0 0.00 0.00 0.00 54 1007.0
20260505052042 69 161 0.0 1.0 0.00 0.00 0.00 54 1007.1
20260505051539 69 137 2.0 4.0 0.00 0.00 0.00 54 1007.0
20260505051037 69 148 0.0 7.0 0.00 0.00 0.00 54 1007.1
20260505050535 69 148 1.0 2.0 0.00 0.00 0.00 54 1007.2
20260505041503 69 177 1.0 3.0 0.00 0.00 0.00 53 1007.2
20260505041000 69 207 5.0 6.0 0.00 0.00 0.00 53 1007.5
20260505040457 69 174 1.0 6.0 0.00 0.00 0.00 53 1007.3
20260505035954 69 161 1.0 3.0 0.00 0.00 0.00 53 1007.4
20260505035450 69 188 1.0 2.0 0.00 0.00 0.00 53 1007.2
20260505034947 69 155 1.0 4.0 0.00 0.00 0.00 52 1007.2
20260505034444 70 191 3.0 4.0 0.00 0.00 0.00 52 1007.1
20260505033941 70 161 0.0 1.0 0.00 0.00 0.00 52 1007.2
20260505033437 70 195 2.0 4.0 0.00 0.00 0.00 52 1007.1
20260505032936 70 177 2.0 4.0 0.00 0.00 0.00 52 1007.2
20260505032433 70 261 2.0 3.0 0.00 0.00 0.00 52 1007.1
20260505031929 70 173 2.0 3.0 0.00 0.00 0.00 51 1007.0
20260505031426 70 152 1.0 3.0 0.00 0.00 0.00 51 1007.2
20260505030923 70 170 0.0 4.0 0.00 0.00 0.00 51 1007.1
20260505030419 70 158 1.0 3.0 0.00 0.00 0.00 51 1006.9
20260505025914 71 159 3.0 6.0 0.00 0.00 0.00 50 1007.1
20260505025412 71 155 2.0 3.0 0.00 0.00 0.00 50 1007.1
20260505024911 70 159 3.0 6.0 0.00 0.00 0.00 50 1007.0
20260505024408 71 190 1.0 2.0 0.00 0.00 0.00 50 1007.0
20260505023905 71 166 1.0 2.0 0.00 0.00 0.00 50 1006.8
20260505023402 71 154 0.0 1.0 0.00 0.00 0.00 49 1006.8
20260505022859 71 156 1.0 3.0 0.00 0.00 0.00 49 1006.9
20260505022356 71 178 0.0 2.0 0.00 0.00 0.00 48 1006.9
20260505021853 72 167 0.0 2.0 0.00 0.00 0.00 48 1006.6
20260505021349 72 143 0.0 3.0 0.00 0.00 0.00 48 1006.6
20260505020845 72 130 1.0 2.0 0.00 0.00 0.00 47 1006.6
20260505020341 72 181 2.0 4.0 0.00 0.00 0.00 47 1006.7
20260505015838 72 196 2.0 4.0 0.00 0.00 0.00 47 1006.5
20260505015335 72 182 2.0 4.0 0.00 0.00 0.00 47 1006.5
20260505014833 72 133 4.0 6.0 0.00 0.00 0.00 46 1006.4
20260505014329 73 163 0.0 3.0 0.00 0.00 0.00 47 1006.3
20260505013826 73 158 0.0 2.0 0.00 0.00 0.00 46 1006.4
20260505013323 73 138 2.0 2.0 0.00 0.00 0.00 46 1006.3
20260505012822 73 181 2.0 7.0 0.00 0.00 0.00 45 1006.4
20260505012319 73 191 2.0 3.0 0.00 0.00 0.00 45 1006.4
20260505011815 74 150 1.0 8.0 0.00 0.00 0.00 45 1006.4
20260505011312 74 184 2.0 7.0 0.00 0.00 0.00 45 1006.4
20260505010808 74 184 1.0 4.0 0.00 0.00 0.00 45 1006.3
20260505010304 74 149 2.0 3.0 0.00 0.00 0.00 44 1006.3
20260505005800 74 187 2.0 4.0 0.00 0.00 0.00 44 1006.2
20260505005257 75 200 3.0 7.0 0.00 0.00 0.00 44 1006.3
20260505004755 75 183 3.0 6.0 0.00 0.00 0.00 44 1006.2
20260505004250 75 170 2.0 2.0 0.00 0.00 0.00 44 1006.1
20260505003748 75 131 2.0 8.0 0.00 0.00 0.00 43 1006.0
20260505003246 75 178 4.0 8.0 0.00 0.00 0.00 42 1006.0
20260505002742 76 202 2.0 8.0 0.00 0.00 0.00 41 1006.3
20260505002239 76 129 2.0 7.0 0.00 0.00 0.00 41 1006.2
20260505001737 76 196 3.0 4.0 0.00 0.00 0.00 40 1006.1
20260505001234 77 189 5.0 8.0 0.00 0.00 0.00 40 1006.0
20260505000731 77 215 4.0 11.0 0.00 0.00 0.00 40 1006.1
20260505000229 78 158 4.0 10.0 0.00 0.00 0.00 39 1006.1
20260504235725 78 238 7.0 9.0 0.00 0.00 0.00 38 1006.1
20260504235221 78 205 2.0 3.0 0.00 0.00 0.00 39 1006.2
20260504234719 78 198 5.0 7.0 0.00 0.00 0.00 38 1006.3
20260504234216 78 266 2.0 7.0 0.00 0.00 0.00 38 1006.3
20260504233712 78 242 6.0 8.0 0.00 0.00 0.00 37 1006.2
20260504233208 78 237 4.0 14.0 0.00 0.00 0.00 37 1006.3
20260504232705 79 214 4.0 14.0 0.00 0.00 0.00 37 1006.3
20260504232202 79 181 3.0 8.0 0.00 0.00 0.00 37 1006.2
20260504231659 79 243 6.0 8.0 0.00 0.00 0.00 36 1006.3
20260504231155 80 270 5.0 8.0 0.00 0.00 0.00 36 1006.5
20260504230651 80 182 0.0 11.0 0.00 0.00 0.00 36 1006.3
20260504230150 80 205 6.0 13.0 0.00 0.00 0.00 36 1006.4
20260504225648 80 121 4.0 15.0 0.00 0.00 0.00 35 1006.3
20260504225144 80 140 2.0 10.0 0.00 0.00 0.00 36 1006.2
20260504224641 80 183 6.0 11.0 0.00 0.00 0.00 34 1006.3
20260504224138 80 187 1.0 10.0 0.00 0.00 0.00 37 1006.5
20260504223635 80 224 6.0 13.0 0.00 0.00 0.00 35 1006.5
20260504223131 81 90 3.0 9.0 0.00 0.00 0.00 37 1006.3
20260504222628 80 218 3.0 8.0 0.00 0.00 0.00 37 1006.3
20260504222125 81 240 3.0 10.0 0.00 0.00 0.00 37 1006.5
20260504221622 81 211 4.0 7.0 0.00 0.00 0.00 36 1006.3
20260504221119 81 228 2.0 8.0 0.00 0.00 0.00 36 1006.4
20260504220615 81 149 3.0 10.0 0.00 0.00 0.00 36 1006.4
20260504220113 81 260 9.0 13.0 0.00 0.00 0.00 35 1006.2
20260504215609 81 154 8.0 14.0 0.00 0.00 0.00 34 1006.5
20260504215107 81 239 8.0 10.0 0.00 0.00 0.00 34 1006.6
20260504214602 82 250 4.0 6.0 0.00 0.00 0.00 35 1006.3
20260504214059 82 204 3.0 8.0 0.00 0.00 0.00 36 1006.5
20260504213555 81 139 4.0 10.0 0.00 0.00 0.00 35 1006.5
20260504213052 82 196 4.0 18.0 0.00 0.00 0.00 35 1006.5
20260504212548 82 236 6.0 9.0 0.00 0.00 0.00 36 1006.5
20260504212046 82 154 3.0 9.0 0.00 0.00 0.00 35 1006.5
20260504211543 82 214 3.0 7.0 0.00 0.00 0.00 36 1006.5
20260504211039 82 186 3.0 9.0 0.00 0.00 0.00 35 1006.6
20260504210536 82 224 5.0 9.0 0.00 0.00 0.00 37 1006.6
20260504210033 82 142 2.0 11.0 0.00 0.00 0.00 36 1006.7
20260504205531 82 143 3.0 11.0 0.00 0.00 0.00 36 1006.7
20260504205029 81 225 3.0 8.0 0.00 0.00 0.00 37 1006.7
20260504204527 82 153 6.0 15.0 0.00 0.00 0.00 35 1006.9
20260504204026 82 152 3.0 9.0 0.00 0.00 0.00 35 1006.9
20260504203523 82 217 3.0 16.0 0.00 0.00 0.00 37 1006.9
20260504203020 81 268 7.0 11.0 0.00 0.00 0.00 37 1007.1
20260504202516 82 119 5.0 8.0 0.00 0.00 0.00 37 1007.1
20260504202013 82 231 4.0 9.0 0.00 0.00 0.00 38 1007.1
20260504201510 82 175 4.0 13.0 0.00 0.00 0.00 36 1007.4
20260504201008 81 113 5.0 9.0 0.00 0.00 0.00 36 1007.4
20260504200504 81 231 4.0 15.0 0.00 0.00 0.00 36 1007.4
20260504200000 82 348 5.0 9.0 0.00 0.00 0.00 35 1007.5
20260504195456 82 229 10.0 15.0 0.00 0.00 0.00 35 1007.7
20260504194953 82 225 3.0 8.0 0.00 0.00 0.00 36 1007.8
20260504194449 81 220 4.0 11.0 0.00 0.00 0.00 37 1008.0
20260504193945 82 232 5.0 13.0 0.00 0.00 0.00 34 1007.9
20260504193443 82 201 3.0 10.0 0.00 0.00 0.00 36 1007.9
20260504192942 82 191 10.0 16.0 0.00 0.00 0.00 35 1008.0
20260504192438 82 218 3.0 8.0 0.00 0.00 0.00 37 1008.1
20260504191937 81 224 1.0 4.0 0.00 0.00 0.00 39 1008.2
20260504191435 81 240 3.0 11.0 0.00 0.00 0.00 36 1008.3
20260504190935 81 217 4.0 10.0 0.00 0.00 0.00 35 1008.3
20260504190432 81 204 3.0 10.0 0.00 0.00 0.00 37 1008.3
20260504185928 81 140 2.0 15.0 0.00 0.00 0.00 37 1008.3
20260504185426 81 199 5.0 10.0 0.00 0.00 0.00 37 1008.4
20260504184921 81 108 5.0 14.0 0.00 0.00 0.00 35 1008.7
20260504184417 81 312 5.0 8.0 0.00 0.00 0.00 38 1008.6
20260504183914 80 216 4.0 7.0 0.00 0.00 0.00 41 1008.5
20260504183411 80 165 4.0 9.0 0.00 0.00 0.00 38 1008.5
20260504182909 80 294 9.0 13.0 0.00 0.00 0.00 37 1008.8
20260504182405 80 255 5.0 9.0 0.00 0.00 0.00 40 1009.1
20260504181902 79 245 6.0 11.0 0.00 0.00 0.00 39 1008.8
20260504181400 78 232 6.0 18.0 0.00 0.00 0.00 39 1008.9
20260504180858 78 232 6.0 11.0 0.00 0.00 0.00 39 1008.8
20260504180356 79 198 11.0 14.0 0.00 0.00 0.00 39 1009.1
20260504175854 79 171 10.0 16.0 0.00 0.00 0.00 39 1009.3
20260504175351 80 160 2.0 13.0 0.00 0.00 0.00 39 1009.0
20260504174849 80 139 9.0 16.0 0.00 0.00 0.00 38 1009.3
20260504174346 79 324 6.0 13.0 0.00 0.00 0.00 39 1009.1
20260504173843 79 205 4.0 10.0 0.00 0.00 0.00 38 1009.2
20260504173340 80 279 4.0 10.0 0.00 0.00 0.00 42 1009.5
20260504172837 80 202 4.0 9.0 0.00 0.00 0.00 39 1009.5
20260504172333 80 133 6.0 11.0 0.00 0.00 0.00 39 1009.8
20260504171829 79 147 5.0 13.0 0.00 0.00 0.00 40 1009.5
20260504171327 79 208 3.0 10.0 0.00 0.00 0.00 42 1009.6
20260504170824 79 195 5.0 8.0 0.00 0.00 0.00 41 1009.8
20260504170321 79 250 8.0 11.0 0.00 0.00 0.00 41 1009.7
20260504160239 77 185 3.0 10.0 0.00 0.00 0.00 48 1010.6
20260504150704 73 174 2.0 7.0 0.00 0.00 0.00 53 1011.0
20260504150201 73 188 5.0 9.0 0.00 0.00 0.00 51 1010.9
20260504141130 69 166 0.0 6.0 0.00 0.00 0.00 59 1011.2
20260504140627 69 135 4.0 8.0 0.00 0.00 0.00 59 1011.1
20260504140122 69 91 4.0 9.0 0.00 0.00 0.00 60 1011.1
20260504130551 64 180 1.0 6.0 0.00 0.00 0.00 67 1011.0